Wind_Speed
4 5 4 4 4 4 4 3 2 1 1 1 1 2 2 2 3 3 3 3 3 4 5 5 5 5 6 6 6 5 5 5 5 6 6 7 7 7 8 9 8 8 7 8 7 7 7 7 7
5 5 5 5 4 4 4 4 3 3 2 2 2 3 3 3 4 4 4 4 4 5 5 6 6 6 6 6 6 6 6 6 6 6 7 7 7 8 9 10 8 8 8 8 8 8 8 8 8
5 5 6 5 5 5 5 5 4 4 4 3 4 4 4 4 5 5 5 5 5 6 6 6 6 7 6 6 6 6 6 6 6 6 6 6 7 8 8 8 7 7 8 8 8 8 8 8 8
6 6 6 5 5 5 5 6 5 6 5 5 5 5 5 5 5 6 6 6 6 6 7 7 6 7 6 7 7 7 7 7 6 6 6 6 7 8 7 6 5 6 7 8 8 8 8 8 8
6 6 6 6 6 6 6 7 6 7 6 6 6 6 6 6 6 6 6 6 7 7 7 7 6 6 7 7 7 7 7 6 7 7 6 7 7 8 7 6 6 6 7 8 8 8 8 8 8
6 6 6 7 7 7 7 7 7 8 8 7 7 6 7 6 6 6 6 7 7 7 7 7 7 7 7 8 8 8 8 7 7 7 7 7 7 8 7 7 6 6 7 7 8 8 8 8 8
7 7 7 8 8 8 8 8 8 8 8 7 7 7 7 6 6 6 6 7 7 8 7 7 7 7 8 8 8 8 8 8 8 8 7 7 7 8 7 7 7 7 7 7 7 7 7 7 7
7 8 8 8 8 8 9 9 8 8 8 7 7 6 7 7 7 7 7 7 7 8 8 8 8 8 8 8 8 8 8 8 8 8 8 7 7 8 7 7 7 7 7 7 7 7 7 7 7
8 8 8 9 9 9 9 9 9 9 8 8 8 7 7 7 7 7 8 8 8 8 9 9 8 8 8 8 9 9 9 9 9 8 8 8 7 7 7 7 8 8 8 7 7 6 6 7 7
9 9 9 10 10 10 10 9 9 9 9 9 9 8 8 8 8 8 8 8 9 9 9 9 9 9 10 10 9 10 10 9 9 9 9 9 8 8 7 7 7 8 8 7 6 7 6 6 6
10 10 10 10 10 11 10 10 10 9 9 9 9 9 9 8 8 9 9 9 9 10 10 10 10 10 10 10 9 9 9 9 9 9 9 9 9 9 8 7 7 7 7 7 7 8 7 6 6
11 10 10 10 10 11 11 10 11 10 9 9 9 9 9 8 9 10 10 10 9 10 10 10 10 10 10 10 9 9 9 10 10 10 9 9 9 9 8 8 8 8 8 8 9 8 8 7 7
11 10 10 10 11 10 10 10 10 10 10 10 10 9 9 9 10 10 11 10 10 10 10 10 11 11 11 10 9 9 9 10 10 10 10 10 10 10 8 8 7 7 7 7 7 7 7 7 7
11 11 11 11 11 11 12 11 11 10 11 11 10 10 10 10 10 10 11 11 11 11 11 10 10 10 10 10 9 10 10 10 10 10 10 10 10 9 8 8 7 7 7 7 7 7 7 7 7
11 11 11 11 12 11 12 12 11 11 11 11 11 11 10 10 10 10 11 11 11 11 10 10 10 10 10 10 10 10 10 10 9 9 9 9 9 8 8 7 7 7 6 6 6 6 6 6 7
11 12 11 11 12 12 12 11 11 12 12 11 11 11 11 11 11 10 10 10 10 10 10 10 10 10 10 10 10 10 9 9 8 8 8 8 8 8 7 7 7 7 7 6 6 6 7 7 7
12 12 11 12 12 12 12 11 11 12 12 11 11 10 10 10 10 10 10 9 10 10 10 10 11 10 10 10 9 9 8 8 7 8 8 7 8 8 7 8 8 7 7 7 7 8 7 7 8
12 12 12 13 13 13 12 12 12 12 12 12 12 11 11 11 11 10 10 10 10 10 11 10 10 10 10 9 9 8 8 7 8 7 7 8 8 8 7 7 7 7 7 8 8 9 8 8 9
12 13 13 13 13 13 12 12 12 12 11 11 11 11 11 11 11 10 9 9 10 10 10 10 10 10 10 9 9 9 8 8 8 8 8 8 8 8 8 8 7 8 8 9 9 9 9 9 9
13 13 13 13 13 12 12 12 12 12 11 11 11 11 11 11 10 10 9 9 9 10 10 10 10 10 9 9 9 8 8 8 8 9 9 9 9 9 9 9 8 8 9 9 10 9 9 9 10
13 13 13 13 13 13 13 12 12 11 11 11 11 12 11 10 10 11 10 10 10 10 10 10 10 10 9 9 8 9 8 9 9 9 8 9 9 9 10 9 9 9 9 10 10 10 10 10 11
13 13 13 13 12 12 12 12 11 11 11 11 11 12 11 10 10 11 11 11 10 10 10 9 9 9 8 8 8 9 9 9 9 9 9 9 9 9 9 10 10 10 10 10 10 11 11 11 11
13 14 14 14 13 13 12 12 11 11 11 11 11 11 11 11 11 11 11 11 10 10 10 10 10 9 9 9 9 8 9 9 9 9 10 10 10 9 9 10 10 10 10 10 11 11 11 12 12
13 14 14 15 14 14 13 13 11 10 11 11 11 11 11 12 12 12 11 11 11 11 11 11 10 10 10 10 10 10 9 10 10 10 10 10 10 10 11 11 11 11 11 11 11 11 11 12 12
14 14 15 15 15 15 14 14 12 11 11 12 12 12 12 12 12 13 12 12 12 11 11 11 11 10 11 11 11 10 11 11 11 11 10 10 11 11 11 12 12 12 11 11 12 12 12 12 12
14 14 14 15 14 14 14 15 13 13 13 13 13 13 13 13 13 13 13 13 12 11 12 12 12 12 12 11 11 12 12 12 12 12 12 11 12 11 11 11 12 12 12 11 12 12 12 12 12
14 15 15 16 16 15 15 15 14 14 14 14 15 15 15 14 13 12 13 13 12 11 12 12 12 12 13 12 12 13 13 13 13 13 13 13 12 12 11 12 12 12 12 12 13 13 13 13 13
15 15 16 17 17 17 16 15 14 14 14 15 15 15 15 14 14 13 13 13 12 12 12 12 13 13 13 13 13 13 13 13 14 14 14 14 14 13 14 13 13 13 13 13 14 14 13 13 13
16 16 16 17 17 17 17 15 15 15 14 14 15 15 15 15 15 16 15 14 14 13 14 14 14 14 14 14 14 14 14 13 13 14 14 15 15 15 15 15 15 15 15 15 15 15 15 15 15
16 16 17 17 17 17 17 16 16 16 15 15 16 16 16 16 16 17 16 16 16 15 16 16 16 16 16 17 17 16 16 15 15 15 16 16 16 16 16 17 17 17 17 17 17 17 17 17 17
Wind_Direction
235 235 236 246 251 260 270 282 292 257 246 259 268 277 290 294 299 299 303 307 317 325 325 326 332 335 339 343 345 343 340 333 329 321 318 319 319 313 307 303 294 287 287 288 285 287 291 294 297
241 242 246 252 259 267 270 272 271 270 262 267 272 279 284 287 294 297 297 298 300 307 311 315 320 322 324 328 328 328 332 329 325 323 320 318 317 315 311 304 294 285 282 285 285 284 286 288 290
243 246 253 259 265 274 278 276 278 283 272 269 276 280 284 291 293 292 289 290 295 298 301 307 310 312 314 319 322 320 322 321 323 320 319 321 320 317 316 311 295 284 280 283 286 284 283 287 289
247 251 257 261 261 266 274 276 279 282 278 275 280 282 282 288 292 289 285 286 290 294 296 301 307 308 311 313 315 315 317 316 316 314 311 313 314 317 318 317 303 288 287 289 286 285 285 287 289
250 255 261 267 266 267 269 272 276 279 281 278 280 281 281 281 284 285 283 285 288 294 294 298 302 304 310 313 313 313 313 314 313 308 302 307 309 314 315 311 304 299 294 293 290 285 285 285 283
254 258 264 269 270 270 272 273 277 279 278 278 277 280 280 278 281 280 280 283 287 291 294 299 301 301 306 307 307 309 309 308 308 307 301 304 306 308 312 310 305 300 299 297 291 287 285 282 278
260 265 268 269 272 272 271 272 274 277 279 277 276 281 283 280 280 276 278 281 283 286 289 294 297 298 302 306 304 303 302 303 304 304 301 298 301 303 302 303 298 295 295 295 293 290 286 284 276
268 270 269 269 273 274 272 272 272 272 271 275 278 280 282 283 282 277 278 279 280 283 283 284 289 291 295 300 302 301 300 300 302 301 295 291 293 297 298 296 296 292 291 292 290 286 280 277 276
267 268 269 270 272 272 270 271 271 271 269 270 275 278 281 282 282 280 279 278 279 278 279 281 284 286 289 293 297 298 296 296 299 298 289 285 284 283 285 288 288 287 287 287 289 291 289 283 281
266 266 270 270 271 271 272 272 271 271 266 267 268 272 275 280 281 283 283 280 281 280 279 280 283 286 287 287 286 288 288 291 295 294 287 282 278 276 275 280 284 283 282 287 294 300 299 292 285
268 268 270 272 272 273 273 273 273 273 269 268 267 267 272 276 277 280 282 282 282 280 279 281 282 283 284 284 283 285 284 288 289 288 284 281 276 274 277 279 281 283 287 291 292 297 296 294 288
271 272 270 270 272 275 275 275 275 275 274 271 270 270 272 273 276 278 279 282 285 286 283 283 283 285 285 282 280 284 286 285 285 284 282 279 276 277 281 286 289 287 286 289 289 289 290 290 286
272 273 271 271 274 276 275 274 274 275 272 270 270 271 274 276 276 276 278 282 285 287 287 284 284 284 282 280 279 280 282 282 284 286 285 283 280 283 286 285 287 290 291 294 293 286 288 284 281
274 273 273 272 272 272 270 269 269 268 270 269 267 268 271 274 276 279 280 281 282 283 285 284 284 281 280 280 276 279 282 284 285 286 286 285 284 286 287 284 285 280 281 285 287 286 281 284 280
271 272 271 272 273 273 272 268 266 267 269 269 268 270 271 273 276 277 276 277 278 282 284 286 284 283 283 284 282 282 283 284 286 286 284 285 285 283 283 281 281 278 281 286 286 287 283 286 285
268 268 268 270 272 272 272 270 268 267 268 269 268 269 271 270 271 273 273 274 278 282 284 285 284 281 281 283 281 281 283 285 285 282 281 281 282 281 279 278 278 279 282 285 285 287 288 290 289
269 270 272 272 273 273 272 271 269 269 267 268 267 267 271 272 271 269 269 270 275 280 281 281 283 280 280 282 281 278 278 279 279 279 282 281 282 282 282 274 275 276 281 283 283 288 292 289 289
270 271 272 273 274 273 271 270 268 267 267 270 271 271 271 271 272 267 266 270 273 275 275 276 278 280 283 281 279 277 275 275 276 276 281 281 281 280 280 277 274 272 274 280 283 285 292 291 290
271 273 273 273 273 272 271 269 267 266 267 269 272 271 271 270 270 265 264 268 271 272 272 276 276 280 283 282 280 278 277 277 277 275 278 282 281 279 275 274 273 273 273 276 281 286 292 294 294
272 272 272 270 271 272 271 269 267 269 270 270 270 271 270 268 268 264 265 265 268 273 275 279 283 285 285 281 278 277 275 276 280 282 279 281 279 279 276 273 272 274 276 277 278 285 291 297 298
272 272 272 271 270 272 272 268 267 269 270 270 269 270 273 272 269 267 266 267 266 269 273 277 279 280 281 277 273 272 274 274 276 277 279 279 276 278 275 270 274 280 280 281 281 284 290 295 299
271 271 271 269 269 272 273 271 269 269 270 269 266 267 270 270 268 265 263 261 261 264 270 275 276 275 276 275 272 271 272 272 272 274 276 277 275 276 276 272 271 276 279 280 282 282 287 291 294
272 272 270 269 270 270 273 274 272 270 272 271 270 270 268 267 265 262 260 259 260 263 266 270 273 272 272 272 274 275 272 270 270 274 277 276 275 276 277 276 276 276 278 279 282 284 288 290 291
273 275 273 270 270 269 273 274 276 274 272 268 268 268 269 264 262 262 262 264 264 264 266 269 272 273 271 269 269 271 271 270 272 275 279 278 275 278 278 277 278 278 280 281 283 285 288 289 288
271 274 275 271 270 271 270 271 275 274 274 269 270 271 271 269 265 262 263 265 267 267 265 267 270 272 270 268 269 270 270 269 271 273 275 278 277 278 280 279 278 278 279 282 282 283 286 288 288
271 273 273 275 273 271 271 272 275 274 273 272 271 274 274 272 270 267 267 267 266 269 268 268 268 270 270 269 268 269 270 270 272 274 275 278 278 278 278 280 278 278 278 278 279 281 283 286 288
272 272 271 271 270 270 273 274 275 275 273 271 272 273 273 272 271 270 271 271 268 269 269 268 268 269 269 272 274 272 270 270 271 274 274 275 277 276 276 280 281 279 279 279 279 279 280 282 283
270 271 271 270 270 272 274 276 277 275 273 271 272 273 271 270 268 270 271 270 270 271 270 270 270 270 270 272 273 275 275 272 270 272 273 274 275 274 274 281 282 280 281 280 280 278 280 280 282
271 270 270 271 271 273 276 276 277 278 278 275 273 273 272 268 268 267 268 270 270 270 269 268 269 270 270 270 271 273 273 273 272 271 271 271 272 273 274 276 278 277 276 277 279 281 281 280 280
271 271 268 269 271 272 276 276 277 277 276 275 274 272 271 270 268 267 267 268 269 269 269 269 270 271 271 270 268 269 270 271 272 272 270 271 273 274 274 275 274 274 273 275 276 278 279 279 280
Height
5876 5877 5878 5879 5880 5880 5880 5880 5880 5880 5880 5880 5881 5881 5881 5881 5882 5884 5882 5880 5880 5880 5880 5879 5878 5877 5876 5875 5874 5873 5873 5873 5872 5872 5871 5871 5870 5870 5869 5867 5867 5868 5869 5869 5869 5870 5870 5870 5870
5876 5877 5878 5879 5879 5879 5880 5880 5880 5880 5880 5880 5880 5880 5880 5880 5881 5881 5880 5880 5880 5880 5879 5879 5878 5877 5876 5875 5874 5873 5873 5872 5872 5871 5871 5870 5869 5868 5866 5864 5863 5865 5867 5868 5868 5868 5868 5868 5868
5876 5877 5878 5878 5878 5879 5880 5879 5879 5879 5879 5880 5880 5880 5880 5880 5880 5879 5879 5879 5879 5879 5878 5878 5877 5876 5875 5874 5874 5873 5872 5871 5871 5870 5870 5869 5868 5867 5864 5860 5860 5863 5865 5866 5867 5867 5867 5867 5867
5876 5877 5878 5878 5878 5879 5879 5879 5878 5879 5879 5879 5879 5879 5879 5879 5879 5878 5878 5878 5878 5878 5877 5877 5876 5875 5874 5874 5873 5872 5871 5871 5870 5869 5869 5868 5867 5866 5864 5861 5861 5862 5864 5865 5865 5865 5865 5865 5865
5875 5876 5877 5877 5877 5878 5878 5878 5878 5878 5878 5877 5878 5878 5877 5878 5877 5877 5877 5877 5877 5877 5876 5875 5875 5874 5873 5872 5872 5871 5870 5870 5869 5868 5868 5867 5867 5866 5864 5863 5862 5863 5864 5864 5864 5864 5864 5864 5864
5875 5875 5876 5876 5876 5877 5877 5877 5877 5877 5876 5876 5877 5876 5876 5876 5876 5876 5876 5876 5875 5875 5875 5874 5873 5873 5872 5871 5870 5870 5869 5868 5868 5867 5867 5866 5865 5865 5864 5863 5863 5863 5863 5863 5863 5863 5863 5862 5862
5874 5874 5874 5875 5875 5876 5876 5876 5876 5875 5875 5875 5875 5875 5875 5875 5875 5874 5874 5874 5874 5873 5873 5873 5872 5871 5870 5870 5869 5868 5867 5867 5866 5866 5865 5865 5864 5864 5863 5863 5862 5862 5862 5862 5861 5861 5861 5861 5861
5873 5874 5873 5874 5874 5874 5874 5874 5874 5874 5874 5874 5874 5874 5874 5874 5873 5873 5873 5873 5872 5872 5871 5871 5870 5870 5869 5868 5867 5867 5866 5865 5865 5864 5863 5863 5863 5862 5862 5862 5861 5861 5861 5860 5860 5860 5860 5859 5859
5871 5873 5872 5872 5872 5873 5872 5873 5872 5872 5872 5872 5872 5873 5873 5872 5872 5872 5871 5871 5871 5870 5869 5869 5868 5868 5867 5866 5866 5865 5864 5864 5863 5862 5862 5861 5861 5861 5860 5860 5860 5860 5859 5859 5859 5858 5858 5858 5858
5870 5870 5871 5871 5871 5871 5871 5871 5871 5871 5871 5871 5871 5871 5871 5870 5870 5870 5870 5869 5869 5868 5868 5867 5866 5866 5865 5864 5863 5863 5862 5862 5861 5861 5860 5860 5859 5859 5859 5858 5858 5858 5858 5857 5857 5857 5857 5857 5857
5868 5868 5868 5868 5869 5869 5869 5869 5869 5869 5869 5869 5869 5869 5869 5869 5868 5868 5868 5867 5867 5866 5866 5865 5864 5863 5863 5862 5861 5861 5860 5860 5859 5859 5858 5858 5857 5857 5857 5857 5857 5856 5856 5856 5856 5856 5856 5856 5856
5866 5866 5866 5867 5867 5867 5867 5867 5867 5867 5867 5867 5867 5867 5867 5867 5866 5866 5866 5865 5865 5864 5863 5862 5862 5861 5860 5860 5859 5859 5858 5858 5857 5856 5856 5856 5855 5855 5855 5855 5855 5855 5854 5854 5854 5854 5854 5854 5854
5864 5864 5864 5865 5865 5864 5864 5865 5865 5865 5865 5865 5865 5865 5865 5864 5864 5864 5863 5863 5862 5861 5860 5860 5859 5859 5858 5857 5857 5856 5856 5855 5855 5854 5854 5853 5853 5853 5853 5853 5853 5853 5853 5853 5853 5853 5853 5853 5853
5861 5862 5862 5862 5862 5862 5862 5862 5863 5863 5862 5862 5862 5862 5862 5862 5861 5861 5860 5860 5859 5859 5858 5857 5857 5856 5855 5855 5854 5854 5853 5852 5852 5852 5851 5851 5851 5851 5851 5851 5851 5851 5851 5851 5851 5851 5851 5851 5851
5859 5860 5860 5860 5860 5860 5860 5861 5860 5860 5860 5860 5860 5860 5860 5859 5859 5858 5858 5857 5856 5856 5855 5855 5854 5854 5853 5852 5852 5851 5850 5850 5850 5849 5849 5849 5849 5849 5849 5849 5849 5849 5849 5849 5849 5849 5849 5849 5849
5857 5858 5858 5858 5857 5857 5859 5859 5858 5857 5857 5857 5857 5857 5857 5857 5856 5856 5855 5855 5854 5854 5853 5853 5852 5851 5850 5849 5849 5848 5848 5847 5847 5847 5846 5847 5847 5847 5847 5847 5847 5847 5847 5847 5848 5848 5848 5847 5847
5855 5855 5855 5856 5855 5854 5855 5855 5855 5854 5855 5855 5854 5854 5854 5854 5854 5853 5853 5852 5852 5851 5851 5850 5849 5848 5847 5846 5845 5845 5845 5845 5844 5844 5844 5844 5845 5845 5845 5845 5845 5845 5845 5846 5846 5846 5846 5845 5845
5852 5853 5853 5853 5852 5852 5852 5852 5852 5852 5852 5852 5852 5852 5852 5851 5851 5851 5850 5850 5850 5849 5848 5848 5847 5845 5844 5844 5843 5843 5842 5842 5842 5842 5842 5842 5842 5842 5843 5843 5843 5843 5844 5844 5844 5843 5843 5843 5843
5849 5850 5850 5850 5849 5849 5849 5849 5849 5849 5849 5850 5849 5849 5849 5849 5849 5848 5848 5848 5847 5847 5846 5845 5844 5843 5842 5841 5840 5840 5840 5840 5840 5840 5840 5840 5840 5840 5840 5841 5841 5841 5841 5842 5841 5841 5841 5841 5840
5847 5847 5847 5847 5847 5847 5846 5847 5847 5847 5847 5847 5847 5847 5846 5846 5846 5846 5845 5845 5845 5844 5843 5842 5841 5840 5839 5839 5838 5838 5838 5838 5838 5838 5838 5838 5838 5838 5838 5838 5839 5839 5839 5839 5839 5839 5839 5838 5838
5844 5844 5844 5844 5844 5844 5844 5844 5844 5844 5844 5844 5844 5844 5844 5844 5843 5843 5843 5843 5842 5842 5841 5840 5838 5837 5837 5836 5836 5836 5836 5836 5836 5836 5836 5835 5835 5836 5836 5836 5836 5836 5837 5837 5837 5836 5836 5836 5835
5841 5841 5841 5841 5841 5841 5842 5842 5842 5842 5842 5842 5842 5841 5841 5841 5841 5840 5840 5840 5839 5839 5838 5837 5836 5835 5835 5834 5834 5834 5834 5833 5834 5834 5833 5833 5833 5833 5833 5834 5834 5834 5834 5834 5834 5834 5833 5833 5832
5838 5838 5838 5838 5838 5839 5839 5839 5841 5839 5839 5839 5839 5838 5838 5838 5838 5837 5837 5836 5836 5836 5835 5835 5834 5833 5832 5832 5832 5832 5831 5831 5831 5831 5831 5831 5831 5831 5831 5831 5832 5832 5832 5831 5831 5831 5830 5830 5829
5835 5835 5835 5835 5836 5837 5837 5837 5838 5837 5837 5836 5836 5836 5835 5835 5835 5835 5834 5834 5834 5833 5833 5832 5831 5831 5830 5830 5829 5829 5829 5829 5829 5829 5829 5829 5829 5829 5829 5829 5829 5829 5829 5829 5828 5828 5827 5827 5826
5833 5833 5833 5832 5833 5834 5834 5834 5835 5834 5834 5834 5834 5833 5833 5833 5833 5832 5832 5831 5831 5831 5830 5829 5829 5828 5828 5827 5827 5827 5827 5826 5826 5826 5826 5826 5826 5826 5826 5826 5826 5826 5826 5826 5825 5825 5824 5824 5823
5829 5830 5830 5830 5830 5830 5830 5831 5833 5831 5831 5831 5831 5831 5830 5830 5830 5829 5829 5829 5828 5828 5827 5827 5826 5826 5825 5825 5824 5824 5824 5824 5824 5824 5824 5824 5824 5824 5824 5824 5823 5823 5823 5823 5822 5822 5821 5821 5820
5826 5826 5826 5826 5826 5827 5827 5828 5829 5828 5827 5827 5827 5827 5827 5827 5826 5826 5826 5826 5825 5825 5824 5824 5824 5823 5823 5822 5821 5821 5821 5821 5821 5821 5821 5821 5821 5821 5821 5821 5820 5820 5820 5819 5819 5819 5818 5818 5817
5823 5823 5823 5822 5822 5823 5824 5824 5825 5824 5824 5824 5824 5824 5823 5823 5823 5823 5823 5822 5822 5822 5821 5820 5820 5820 5820 5819 5818 5818 5817 5817 5817 5818 5818 5818 5818 5818 5818 5817 5817 5817 5816 5816 5816 5815 5815 5814 5813
5819 5819 5818 5818 5819 5819 5819 5822 5820 5820 5820 5820 5820 5820 5820 5820 5820 5819 5819 5818 5818 5818 5817 5817 5816 5816 5816 5815 5815 5815 5814 5814 5814 5814 5814 5814 5814 5814 5814 5814 5813 5813 5813 5812 5812 5812 5811 5811 5810
5815 5815 5815 5815 5815 5815 5815 5819 5816 5816 5816 5816 5816 5816 5816 5816 5815 5815 5815 5814 5814 5814 5813 5813 5812 5812 5812 5812 5811 5811 5811 5810 5810 5810 5810 5810 5810 5810 5810 5809 5809 5809 5808 5808 5808 5808 5807 5807 5806